This is the latest recevied weather packets stored in our database for station/object SV9TNF-52. If no packets are shown the sender has not sent any weather packets the latest 10 day(s).
| Time | Temp. | Humidity | Pressure | Rain* | Wind** | Luminosity | Snow |
|---|---|---|---|---|---|---|---|
| 1788311312 | 22.22° C | 77% | 1020 hPa | 0 mm | 7.6 m/s, 197° | - | - |
| 1788311011 | 22.22° C | 77% | 1020 hPa | 0 mm | 7.6 m/s, 237° | - | - |
| 1788310711 | 22.22° C | 77% | 1020 hPa | 0 mm | 6.71 m/s, 193° | - | - |
| 1788310411 | 22.22° C | 77% | 1020 hPa | 0 mm | 5.36 m/s, 275° | - | - |
| 1788310111 | 22.22° C | 77% | 1020 hPa | 0 mm | 6.71 m/s, 197° | - | - |
| 1788309811 | 22.78° C | 77% | 1020 hPa | 0 mm | 6.26 m/s, 236° | - | - |
| 1788309511 | 22.78° C | 77% | 1020 hPa | 0 mm | 6.26 m/s, 240° | - | - |
| 1788309211 | 22.22° C | 78% | 1020 hPa | 0 mm | 5.81 m/s, 199° | - | - |
| 1788308911 | 22.22° C | 78% | 1020 hPa | 0 mm | 5.81 m/s, 226° | - | - |
| 1788308610 | 22.22° C | 78% | 1020 hPa | 0 mm | 5.81 m/s, 216° | - | - |
| 1788308310 | 22.22° C | 78% | 1020 hPa | 0 mm | 3.58 m/s, 201° | - | - |
| 1788308010 | 22.22° C | 78% | 1020 hPa | 0 mm | 5.81 m/s, 235° | - | - |
| 1788307711 | 22.78° C | 78% | 1020 hPa | 0 mm | 5.36 m/s, 190° | - | - |
| 1788307410 | 22.78° C | 78% | 1020 hPa | 0 mm | 6.26 m/s, 220° | - | - |
| 1788307110 | 22.78° C | 78% | 1020 hPa | 0 mm | 6.26 m/s, 174° | - | - |
| 1788306811 | 22.78° C | 78% | 1020 hPa | 0 mm | 7.15 m/s, 222° | - | - |
| 1788306510 | 22.78° C | 78% | 1020 hPa | 0 mm | 5.81 m/s, 184° | - | - |
| 1788306221 | 22.78° C | 78% | 1020 hPa | 0 mm | 5.81 m/s, 232° | - | - |
| 1788305910 | 22.78° C | 78% | 1020 hPa | 0 mm | 7.15 m/s, 216° | - | - |
| 1788305610 | 22.78° C | 77% | 1020 hPa | 0 mm | 4.47 m/s, 233° | - | - |
| 1788305309 | 22.78° C | 77% | 1020 hPa | 0 mm | 5.81 m/s, 202° | - | - |
| 1788305010 | 22.78° C | 77% | 1020 hPa | 0 mm | 5.36 m/s, 149° | - | - |
| 1788304710 | 22.78° C | 77% | 1020 hPa | 0 mm | 5.36 m/s, 180° | - | - |
| 1788304409 | 22.78° C | 77% | 1020 hPa | 0 mm | 6.26 m/s, 206° | - | - |
| 1788304109 | 22.78° C | 77% | 1020 hPa | 0 mm | 4.92 m/s, 203° | - | - |
* Rain latest hour (hover to see other rain measurements)
** Current wind speed in m/s (hover to see current wind gust speed)